Weather History for Rapid City, SD

Change the Weather History Date:

Thursday, February 6, 2014

  Actual Average Record
Temperature  
Mean Temperature -9 °F 26 °F  
Max Temperature 0 °F 38 °F 62 °F (1963)
Min Temperature -19 °F 14 °F -19 °F (2014)
Degree Days  
Heating Degree Days 74 39  
Month to date heating degree days 364 235  
Since 1 July heating degree days 4709 4391  
Cooling Degree Days 0 0  
Month to date cooling degree days 0 0  
Year to date cooling degree days 0 0  
Moisture  
Dew Point -16 °F    
Average Humidity 70    
Maximum Humidity 81    
Minimum Humidity 59    
Precipitation  
Precipitation 0.00 in 0.01 in 0.20 in (1986)
Month to date precipitation 0.07 0.06  
Year to date precipitation 0.27 0.36  
Snow  
Snow 0.00 in 0.20 in - ()
Month to date snowfall 1.6 1.0  
Since 1 July snowfall 38.2 18.6  
Snow Depth 1.00 in    
Sea Level Pressure  
Sea Level Pressure 30.51 in    
Wind  
Wind Speed 3 mph (SW)    
Max Wind Speed 14 mph    
Max Gust Speed 16 mph    
Visibility 10 miles    
Events      
T = Trace of Precipitation, MM = Missing Value Source: NWS Daily Summary

Daily Weather History Graph

Daily Weather History Graph

Search for Another Location

Airport:

Trip Planner

Search our weather history database for the weather conditions in past years. The results will help you decide how hot, cold, wet, or windy it might be!

Date:

Astronomy

Feb. 06, 2014 Rise Set
Actual Time 7:03 AM MST 5:09 PM MST
Civil Twilight 6:33 AM MST 5:39 PM MST
Nautical Twilight 5:59 AM MST 6:14 PM MST
Astronomical Twilight 5:25 AM MST 6:47 PM MST
Moon 10:42 AM MST (2/6) 12:21 AM MST (2/6)
Length of Visible Light 11h 06m
Length of Day
10h 05m
Waxing Crescent, 50% of the Moon is Illuminated
Feb 6
Waxing Crescent
Feb 6
First Quarter
Feb 14
Full
Feb 22
Last Quarter
Mar 1
New

Hourly Weather History & Observations

Time (MST) Temp. Windchill Dew Point Humidity Pressure Visibility Wind Dir Wind Speed Gust Speed Precip Events Conditions
12:52 AM -11.0 °F -31.8 °F -18.9 °F 68% 30.71 in 10.0 mi NNW 12.7 mph - N/A   Clear
1:52 AM -11.0 °F -28.8 °F -18.9 °F 68% 30.69 in 10.0 mi North 9.2 mph - N/A   Partly Cloudy
2:52 AM -11.9 °F -27.3 °F -18.9 °F 71% 30.68 in 10.0 mi NW 6.9 mph - N/A   Scattered Clouds
3:52 AM -11.0 °F -27.6 °F -20.0 °F 64% 30.66 in 10.0 mi NW 8.1 mph - N/A   Mostly Cloudy
4:38 AM -13.0 °F -22.7 °F -18.4 °F 77% 30.38 in 10.0 mi West 3.5 mph - N/A   Mostly Cloudy
4:52 AM -13.0 °F -25.1 °F -18.9 °F 75% 30.68 in 10.0 mi West 4.6 mph - N/A   Overcast
5:24 AM -14.8 °F -24.8 °F -20.2 °F 77% 30.37 in 10.0 mi WNW 3.5 mph - N/A   Mostly Cloudy
5:52 AM -16.1 °F - -22.0 °F 74% 30.68 in 10.0 mi Calm Calm - N/A   Mostly Cloudy
6:27 AM -16.6 °F - -23.8 °F 70% 30.36 in 10.0 mi Calm Calm - N/A   Scattered Clouds
6:52 AM -16.1 °F - -20.9 °F 79% 30.68 in 10.0 mi Calm Calm - N/A   Clear
7:52 AM -14.1 °F - -18.9 °F 79% 30.66 in 10.0 mi Calm Calm - N/A   Clear
8:52 AM -9.9 °F -19.2 °F -16.1 °F 74% 30.65 in 10.0 mi South 3.5 mph - N/A   Clear
9:52 AM -7.1 °F -21.4 °F -13.0 °F 75% 30.62 in 10.0 mi SSW 6.9 mph - N/A   Clear
10:52 AM -5.1 °F -17.6 °F -11.0 °F 76% 30.60 in 10.0 mi SSE 5.8 mph - N/A   Clear
11:52 AM -4.0 °F - -11.0 °F 72% 30.56 in 10.0 mi Calm Calm - N/A   Clear
12:52 PM -2.9 °F -15.0 °F -9.9 °F 72% 30.51 in 10.0 mi South 5.8 mph - N/A   Clear
1:52 PM -0.9 °F -11.0 °F -9.0 °F 69% 30.46 in 10.0 mi South 4.6 mph - N/A   Clear
2:52 PM -0.9 °F - -9.9 °F 66% 30.44 in 10.0 mi Calm Calm - N/A   Clear
3:52 PM -0.9 °F -11.0 °F -11.0 °F 62% 30.42 in 10.0 mi SE 4.6 mph - N/A   Clear
4:52 PM -4.0 °F -16.3 °F -11.9 °F 69% 30.42 in 10.0 mi South 5.8 mph - N/A   Clear
5:52 PM -8.0 °F - -14.1 °F 75% 30.42 in 10.0 mi Calm Calm - N/A   Clear
6:52 PM -8.0 °F - -15.0 °F 71% 30.41 in 10.0 mi Calm Calm - N/A   Clear
7:52 PM -9.0 °F - -15.0 °F 75% 30.39 in 10.0 mi Calm Calm - N/A   Clear
8:52 PM -9.9 °F - -14.1 °F 82% 30.37 in 10.0 mi Calm Calm - N/A   Clear
9:52 PM -16.1 °F - -20.9 °F 79% 30.35 in 10.0 mi Calm Calm - N/A   Clear
10:52 PM -15.0 °F - -18.0 °F 86% 30.31 in 10.0 mi Calm Calm - N/A   Clear
11:52 PM -16.1 °F - -18.9 °F 87% 30.29 in 10.0 mi Calm Calm - N/A   Clear